When you browse on this site, cookies collect data to enhance your experience and personalize the content and advertising you see.
Visit our Privacy Policy to learn more. By continuing to use the site, you agree to this use of cookies and data.
  • In Lithuania
  • List of Countries
  • For 7 days
  • Water Temperature
  • Satellite Maps
  • Weather Map
  • Weather Widgets
  • user-avatar
    Login

    Hourly Weather Ovoschi

    Today, 14 December, Friday

    Time Temperature Precipitation Wind Pressure Humidity
    00:00 0°C° 0 mm 3 mps 751 mmHg 88%
    01:00 0°C° 0 mm 3 mps 751 mmHg 88%
    02:00 0°C° 0 mm 3 mps 751 mmHg 88%
    03:00 -1°C° 0 mm 2 mps 751 mmHg 88%
    04:00 +1°C° 0 mm 2 mps 751 mmHg 87%
    05:00 +1°C° 0 mm 2 mps 751 mmHg 86%
    06:00 +1°C° 0 mm 2 mps 751 mmHg 85%
    07:00 +2°C° 0 mm 2 mps 751 mmHg 83%
    08:00 +2°C° 0 mm 2 mps 751 mmHg 81%
    09:00 +1°C° 0 mm 3 mps 751 mmHg 80%
    10:00 +3°C° 0 mm 3 mps 751 mmHg 73%
    11:00 +4°C° 0 mm 4 mps 751 mmHg 67%
    12:00 +5°C° 0 mm 5 mps 751 mmHg 61%
    13:00 +5°C° 0 mm 5 mps 751 mmHg 61%
    14:00 +5°C° 0 mm 4 mps 751 mmHg 62%
    15:00 +5°C° 0 mm 4 mps 751 mmHg 62%
    16:00 +4°C° 0 mm 3 mps 752 mmHg 67%
    17:00 +3°C° 0 mm 3 mps 752 mmHg 71%
    18:00 +3°C° 0 mm 3 mps 752 mmHg 76%
    19:00 +2°C° 0 mm 3 mps 753 mmHg 77%
    20:00 +2°C° 0 mm 3 mps 753 mmHg 78%
    21:00 +2°C° 0 mm 3 mps 753 mmHg 79%
    22:00 +2°C° 0 mm 3 mps 753 mmHg 79%
    23:00 +2°C° 0 mm 3 mps 753 mmHg 79%

    Tomorrow, 15 December, Saturday

    Time Temperature Precipitation Wind Pressure Humidity
    00:00 +2°C° 0 mm 3 mps 753 mmHg 80%
    01:00 +2°C° 0 mm 3 mps 753 mmHg 79%
    02:00 +1°C° 0 mm 3 mps 753 mmHg 78%
    03:00 +1°C° 0 mm 3 mps 753 mmHg 78%
    04:00 +1°C° 0 mm 3 mps 753 mmHg 78%
    05:00 +1°C° 0 mm 3 mps 753 mmHg 78%
    06:00 +1°C° 0 mm 3 mps 753 mmHg 78%
    07:00 +1°C° 0 mm 3 mps 753 mmHg 77%
    08:00 +2°C° 0 mm 3 mps 754 mmHg 75%
    09:00 +2°C° 0 mm 3 mps 754 mmHg 73%
    10:00 +3°C° 0 mm 3 mps 754 mmHg 70%
    11:00 +4°C° 0 mm 3 mps 753 mmHg 66%
    12:00 +5°C° 0 mm 3 mps 753 mmHg 62%
    13:00 +5°C° 0.1 mm 3 mps 753 mmHg 64%
    14:00 +5°C° 0.1 mm 3 mps 753 mmHg 67%
    15:00 +6°C° 0.1 mm 2 mps 753 mmHg 69%
    16:00 +5°C° 0.3 mm 2 mps 753 mmHg 73%
    17:00 +5°C° 0.3 mm 2 mps 753 mmHg 77%
    18:00 +4°C° 0.3 mm 2 mps 753 mmHg 81%
    19:00 +5°C° 0.5 mm 1 mps 754 mmHg 83%
    20:00 +5°C° 0.5 mm 1 mps 754 mmHg 84%
    21:00 +4°C° 0.5 mm 1 mps 754 mmHg 86%
    22:00 +4°C° 0.4 mm 1 mps 754 mmHg 86%
    23:00 +3°C° 0.4 mm 2 mps 754 mmHg 87%

    Day after tomorrow, 16 December, Sunday

    Time Temperature Precipitation Wind Pressure Humidity
    00:00 +3°C° 0.4 mm 2 mps 754 mmHg 88%
    01:00 +2°C° 0.1 mm 2 mps 754 mmHg 89%
    02:00 +1°C° 0.1 mm 2 mps 755 mmHg 89%
    03:00 +1°C° 0.1 mm 2 mps 755 mmHg 90%
    04:00 +1°C° 0 mm 2 mps 755 mmHg 89%
    05:00 -1°C° 0 mm 2 mps 755 mmHg 88%
    06:00 -1°C° 0 mm 3 mps 755 mmHg 88%
    07:00 -1°C° 0 mm 3 mps 756 mmHg 86%
    08:00 -1°C° 0 mm 3 mps 756 mmHg 85%
    09:00 -2°C° 0 mm 3 mps 756 mmHg 84%
    10:00 -1°C° 0 mm 3 mps 756 mmHg 80%
    11:00 -1°C° 0 mm 3 mps 756 mmHg 77%
    12:00 0°C° 0 mm 3 mps 756 mmHg 74%
    13:00 0°C° 0 mm 3 mps 756 mmHg 73%
    14:00 0°C° 0 mm 3 mps 756 mmHg 73%
    15:00 0°C° 0 mm 3 mps 756 mmHg 72%
    16:00 -2°C° 0 mm 4 mps 756 mmHg 74%
    17:00 -2°C° 0 mm 4 mps 757 mmHg 77%
    18:00 -3°C° 0 mm 4 mps 757 mmHg 79%
    19:00 -3°C° 0 mm 4 mps 757 mmHg 80%
    20:00 -4°C° 0 mm 5 mps 757 mmHg 80%
    21:00 -5°C° 0 mm 5 mps 757 mmHg 80%
    22:00 -5°C° 0 mm 5 mps 757 mmHg 80%
    23:00 -5°C° 0 mm 5 mps 757 mmHg 79%

    17 December, Monday

    Time Temperature Precipitation Wind Pressure Humidity
    00:00 -5°C° 0 mm 5 mps 756 mmHg 78%
    01:00 -5°C° 0 mm 5 mps 756 mmHg 78%
    02:00 -5°C° 0 mm 5 mps 756 mmHg 78%
    03:00 -5°C° 0 mm 5 mps 756 mmHg 78%
    04:00 -5°C° 0 mm 5 mps 756 mmHg 78%
    05:00 -5°C° 0 mm 5 mps 756 mmHg 78%
    06:00 -5°C° 0 mm 5 mps 756 mmHg 78%
    07:00 -5°C° 0 mm 6 mps 756 mmHg 77%
    08:00 -5°C° 0 mm 6 mps 756 mmHg 77%
    09:00 -5°C° 0 mm 6 mps 756 mmHg 76%
    10:00 -5°C° 0 mm 6 mps 756 mmHg 74%
    11:00 -4°C° 0 mm 6 mps 755 mmHg 72%
    12:00 -4°C° 0 mm 6 mps 755 mmHg 71%
    13:00 -4°C° 0 mm 6 mps 755 mmHg 71%
    14:00 -4°C° 0 mm 6 mps 755 mmHg 72%
    15:00 -3°C° 0 mm 6 mps 755 mmHg 72%
    16:00 -4°C° 0 mm 6 mps 755 mmHg 74%
    17:00 -4°C° 0 mm 6 mps 755 mmHg 76%
    18:00 -4°C° 0 mm 6 mps 755 mmHg 78%
    19:00 -4°C° 0 mm 6 mps 755 mmHg 79%
    20:00 -4°C° 0 mm 6 mps 755 mmHg 79%
    21:00 -4°C° 0 mm 6 mps 755 mmHg 80%
    22:00 -4°C° 0 mm 6 mps 755 mmHg 80%
    23:00 -4°C° 0 mm 6 mps 754 mmHg 81%

    18 December, Tuesday

    Time Temperature Precipitation Wind Pressure Humidity
    00:00 -4°C° 0 mm 6 mps 754 mmHg 82%
    01:00 -4°C° 0 mm 6 mps 754 mmHg 83%
    02:00 -4°C° 0 mm 6 mps 754 mmHg 84%
    03:00 -4°C° 0 mm 6 mps 754 mmHg 85%
    04:00 -4°C° 0.1 mm 6 mps 754 mmHg 86%
    05:00 -4°C° 0.1 mm 6 mps 754 mmHg 86%
    06:00 -4°C° 0.1 mm 6 mps 754 mmHg 87%
    07:00 -4°C° 0.1 mm 6 mps 754 mmHg 87%
    08:00 -4°C° 0.1 mm 6 mps 754 mmHg 87%
    09:00 -4°C° 0.1 mm 6 mps 755 mmHg 87%
    10:00 -4°C° 0.1 mm 6 mps 755 mmHg 86%
    11:00 -4°C° 0.1 mm 6 mps 754 mmHg 86%
    12:00 -4°C° 0.1 mm 6 mps 754 mmHg 85%
    13:00 -4°C° 0.1 mm 5 mps 754 mmHg 85%
    14:00 -4°C° 0.1 mm 5 mps 754 mmHg 86%
    15:00 -4°C° 0.1 mm 5 mps 754 mmHg 86%
    16:00 -4°C° 0 mm 5 mps 754 mmHg 86%
    17:00 -4°C° 0 mm 5 mps 755 mmHg 87%
    18:00 -4°C° 0 mm 5 mps 755 mmHg 87%
    19:00 -4°C° 0 mm 5 mps 755 mmHg 87%
    20:00 -4°C° 0 mm 5 mps 755 mmHg 87%
    21:00 -4°C° 0 mm 5 mps 755 mmHg 87%
    22:00 -4°C° 0 mm 5 mps 755 mmHg 88%
    23:00 -4°C° 0 mm 5 mps 755 mmHg 88%

    19 December, Wednesday

    Time Temperature Precipitation Wind Pressure Humidity
    00:00 -4°C° 0 mm 5 mps 755 mmHg 88%
    01:00 -4°C° 0 mm 5 mps 755 mmHg 89%
    02:00 -3°C° 0 mm 4 mps 755 mmHg 89%
    03:00 -3°C° 0 mm 4 mps 755 mmHg 89%
    04:00 -4°C° 0 mm 4 mps 755 mmHg 89%
    05:00 -4°C° 0 mm 4 mps 755 mmHg 89%
    06:00 -5°C° 0 mm 5 mps 755 mmHg 89%
    07:00 -5°C° 0 mm 5 mps 755 mmHg 89%
    08:00 -5°C° 0 mm 5 mps 756 mmHg 89%
    09:00 -5°C° 0 mm 5 mps 756 mmHg 88%
    10:00 -4°C° 0 mm 4 mps 756 mmHg 87%
    11:00 -3°C° 0 mm 4 mps 755 mmHg 86%
    12:00 -3°C° 0 mm 4 mps 755 mmHg 85%
    13:00 -3°C° 0 mm 4 mps 755 mmHg 85%
    14:00 -3°C° 0 mm 4 mps 755 mmHg 85%
    15:00 -3°C° 0 mm 4 mps 755 mmHg 85%
    16:00 -3°C° 0 mm 4 mps 756 mmHg 86%
    17:00 -3°C° 0 mm 4 mps 756 mmHg 87%
    18:00 -3°C° 0 mm 4 mps 756 mmHg 87%
    19:00 -3°C° 0 mm 4 mps 756 mmHg 87%
    20:00 -4°C° 0 mm 4 mps 757 mmHg 87%
    21:00 -4°C° 0 mm 4 mps 757 mmHg 87%
    22:00 -4°C° 0 mm 4 mps 757 mmHg 87%
    23:00 -4°C° 0 mm 4 mps 757 mmHg 87%
    Show more